User: anonymous   Login
Location: Aiyede
(8.4833°N, 4.4500°E)
Time: 03:29:33
(UTC+00:00)
Language:

VEP-3 - Orbit

View from above orbital plane
View from above orbital plane
View from above satellite
View from above satellite

Ground track
Ground track

The orbit data is extracted from the following two-line orbital elements,

1 27369U 02003C   20328.94302671 -.00000146 +00000-0 +00000-0 0  9991
2 27369 024.0505 097.7101 6893191 158.9498 255.8284 02.37195509162308
Epoch (UTC): 23 November 2020 22:37:57
Eccentricity: 0.6893191
inclination: 24.0505°
perigee height: 1000 km
apogee height: 33743 km
right ascension of ascending node: 97.7101°
argument of perigee: 158.9498°
revolutions per day: 2.37195509
mean anomaly at epoch: 255.8284°
orbit number at epoch: 16230

The dashed part of the orbit path shows where the satellite is in the earth's shadow,  

DLR